User: anonymous   Login
Location: Mascot Post Office (historical)
(40.2645°N, 99.5462°W)
Time: 11:21:21
(UTC+00:00)
Language:

Cosmos 1315 Rocket - Orbit

View from above orbital plane
View from above orbital plane
View from above satellite
View from above satellite

Ground track
Ground track

The orbit data is extracted from the following two-line orbital elements,

1 12904U 81103B   20270.90637623 +.00000569 +00000-0 +37196-4 0  9996
2 12904 081.1800 347.0162 0029082 082.8855 277.5673 15.05844855672823
Epoch (UTC): 26 September 2020 21:45:10
Eccentricity: 0.0029082
inclination: 81.1800°
perigee height: 529 km
apogee height: 569 km
right ascension of ascending node: 347.0162°
argument of perigee: 82.8855°
revolutions per day: 15.05844855
mean anomaly at epoch: 277.5673°
orbit number at epoch: 67282

The dashed part of the orbit path shows where the satellite is in the earth's shadow,  

DLR